When you browse on this site, cookies collect data to enhance your experience and personalize the content and advertising you see.
Visit our Privacy Policy to learn more. By continuing to use the site, you agree to this use of cookies and data.
  • en Belgique
  • Liste des pays
  • À 7 jours
  • Température de l'eau
  • Carte satellitaire
  • Carte météo
  • Widgets météo
  • user-avatar
    Se connecter

    Météo par heure à Byala

    Ce jour, 18 Juin, Mardi

    Heure Température Précipitation Vent Pression Humidité
    00:00 +20°C° 0 mm 3 m/s 750 mmHg 89%
    01:00 +20°C° 0 mm 3 m/s 749 mmHg 87%
    02:00 +19°C° 0 mm 3 m/s 749 mmHg 85%
    03:00 +19°C° 0 mm 4 m/s 749 mmHg 84%
    04:00 +19°C° 0 mm 4 m/s 749 mmHg 82%
    05:00 +19°C° 0 mm 4 m/s 749 mmHg 81%
    06:00 +21°C° 0 mm 4 m/s 749 mmHg 75%
    07:00 +23°C° 0 mm 4 m/s 750 mmHg 69%
    08:00 +26°C° 0 mm 4 m/s 750 mmHg 63%
    09:00 +27°C° 0 mm 5 m/s 750 mmHg 57%
    10:00 +29°C° 0 mm 5 m/s 750 mmHg 51%
    11:00 +30°C° 0 mm 5 m/s 750 mmHg 46%
    12:00 +30°C° 0 mm 5 m/s 750 mmHg 46%
    13:00 +30°C° 0 mm 5 m/s 750 mmHg 46%
    14:00 +30°C° 0 mm 5 m/s 750 mmHg 47%
    15:00 +29°C° 0 mm 5 m/s 750 mmHg 48%
    16:00 +29°C° 0 mm 5 m/s 749 mmHg 50%
    17:00 +28°C° 0 mm 5 m/s 749 mmHg 51%
    18:00 +26°C° 0 mm 4 m/s 749 mmHg 62%
    19:00 +23°C° 0 mm 4 m/s 749 mmHg 73%
    20:00 +21°C° 0 mm 3 m/s 749 mmHg 84%
    21:00 +21°C° 0 mm 3 m/s 749 mmHg 86%
    22:00 +20°C° 0 mm 3 m/s 749 mmHg 88%
    23:00 +19°C° 0 mm 3 m/s 750 mmHg 91%

    Demain, 19 Juin, Mercredi

    Heure Température Précipitation Vent Pression Humidité
    00:00 +19°C° 0 mm 3 m/s 749 mmHg 91%
    01:00 +19°C° 0 mm 3 m/s 749 mmHg 91%
    02:00 +18°C° 0 mm 3 m/s 749 mmHg 91%
    03:00 +18°C° 0 mm 3 m/s 749 mmHg 88%
    04:00 +18°C° 0 mm 4 m/s 749 mmHg 86%
    05:00 +18°C° 0 mm 4 m/s 749 mmHg 84%
    06:00 +20°C° 0 mm 4 m/s 749 mmHg 76%
    07:00 +22°C° 0 mm 4 m/s 749 mmHg 67%
    08:00 +25°C° 0 mm 4 m/s 750 mmHg 58%
    09:00 +27°C° 0 mm 4 m/s 750 mmHg 54%
    10:00 +28°C° 0 mm 4 m/s 750 mmHg 49%
    11:00 +30°C° 0 mm 4 m/s 749 mmHg 44%
    12:00 +30°C° 0 mm 4 m/s 749 mmHg 43%
    13:00 +30°C° 0 mm 4 m/s 749 mmHg 41%
    14:00 +32°C° 0 mm 4 m/s 749 mmHg 40%
    15:00 +30°C° 0 mm 4 m/s 748 mmHg 43%
    16:00 +29°C° 0 mm 4 m/s 748 mmHg 46%
    17:00 +29°C° 0 mm 3 m/s 748 mmHg 49%
    18:00 +27°C° 0 mm 3 m/s 748 mmHg 58%
    19:00 +25°C° 0 mm 2 m/s 748 mmHg 67%
    20:00 +23°C° 0 mm 2 m/s 748 mmHg 75%
    21:00 +21°C° 0 mm 2 m/s 748 mmHg 78%
    22:00 +20°C° 0 mm 2 m/s 748 mmHg 80%
    23:00 +20°C° 0 mm 2 m/s 748 mmHg 83%

    Après-demain, 20 Juin, Jeudi

    Heure Température Précipitation Vent Pression Humidité
    00:00 +20°C° 0 mm 2 m/s 748 mmHg 84%
    01:00 +19°C° 0 mm 3 m/s 748 mmHg 84%
    02:00 +19°C° 0 mm 3 m/s 748 mmHg 85%
    03:00 +19°C° 0 mm 3 m/s 748 mmHg 84%
    04:00 +18°C° 0 mm 3 m/s 748 mmHg 84%
    05:00 +18°C° 0 mm 4 m/s 748 mmHg 83%
    06:00 +20°C° 0 mm 3 m/s 748 mmHg 76%
    07:00 +22°C° 0 mm 3 m/s 748 mmHg 69%
    08:00 +26°C° 0 mm 3 m/s 748 mmHg 61%
    09:00 +27°C° 0 mm 4 m/s 748 mmHg 57%
    10:00 +29°C° 0 mm 4 m/s 748 mmHg 53%
    11:00 +30°C° 0 mm 4 m/s 748 mmHg 49%
    12:00 +30°C° 0 mm 4 m/s 748 mmHg 48%
    13:00 +30°C° 0 mm 4 m/s 748 mmHg 48%
    14:00 +30°C° 0 mm 4 m/s 748 mmHg 48%
    15:00 +30°C° 0 mm 4 m/s 748 mmHg 51%
    16:00 +29°C° 0 mm 4 m/s 747 mmHg 54%
    17:00 +29°C° 0 mm 4 m/s 747 mmHg 57%
    18:00 +27°C° 0 mm 3 m/s 747 mmHg 64%
    19:00 +25°C° 0 mm 3 m/s 748 mmHg 71%
    20:00 +23°C° 0 mm 2 m/s 748 mmHg 79%
    21:00 +23°C° 0 mm 2 m/s 748 mmHg 81%
    22:00 +21°C° 0 mm 2 m/s 748 mmHg 82%
    23:00 +21°C° 0 mm 3 m/s 748 mmHg 84%

    21 Juin, Vendredi

    Heure Température Précipitation Vent Pression Humidité
    00:00 +21°C° 0 mm 3 m/s 748 mmHg 85%
    01:00 +20°C° 0 mm 3 m/s 748 mmHg 85%
    02:00 +20°C° 0 mm 3 m/s 748 mmHg 86%
    03:00 +20°C° 0 mm 3 m/s 748 mmHg 86%
    04:00 +20°C° 0 mm 3 m/s 748 mmHg 87%
    05:00 +20°C° 0 mm 3 m/s 748 mmHg 88%
    06:00 +22°C° 0 mm 3 m/s 748 mmHg 80%
    07:00 +25°C° 0 mm 3 m/s 749 mmHg 72%
    08:00 +27°C° 0 mm 3 m/s 749 mmHg 63%
    09:00 +28°C° 0 mm 3 m/s 749 mmHg 58%
    10:00 +30°C° 0 mm 3 m/s 749 mmHg 52%
    11:00 +33°C° 0 mm 4 m/s 749 mmHg 47%
    12:00 +33°C° 0 mm 4 m/s 749 mmHg 46%
    13:00 +33°C° 0 mm 4 m/s 749 mmHg 46%
    14:00 +33°C° 0 mm 4 m/s 749 mmHg 45%
    15:00 +32°C° 0 mm 4 m/s 749 mmHg 48%
    16:00 +32°C° 0 mm 4 m/s 748 mmHg 50%
    17:00 +30°C° 0 mm 4 m/s 748 mmHg 52%
    18:00 +28°C° 0 mm 3 m/s 748 mmHg 62%
    19:00 +26°C° 0 mm 3 m/s 749 mmHg 72%
    20:00 +24°C° 0 mm 2 m/s 749 mmHg 82%
    21:00 +24°C° 0 mm 2 m/s 749 mmHg 83%
    22:00 +23°C° 0 mm 2 m/s 749 mmHg 84%
    23:00 +22°C° 0 mm 3 m/s 749 mmHg 85%

    22 Juin, Samedi

    Heure Température Précipitation Vent Pression Humidité
    00:00 +22°C° 0 mm 3 m/s 749 mmHg 85%
    01:00 +22°C° 0 mm 3 m/s 749 mmHg 84%
    02:00 +21°C° 0 mm 3 m/s 749 mmHg 84%
    03:00 +21°C° 0 mm 3 m/s 749 mmHg 84%
    04:00 +21°C° 0 mm 3 m/s 749 mmHg 83%
    05:00 +21°C° 0 mm 4 m/s 749 mmHg 83%
    06:00 +23°C° 0 mm 4 m/s 749 mmHg 75%
    07:00 +26°C° 0 mm 4 m/s 749 mmHg 66%
    08:00 +28°C° 0 mm 4 m/s 750 mmHg 58%
    09:00 +30°C° 0 mm 4 m/s 750 mmHg 53%
    10:00 +32°C° 0 mm 4 m/s 750 mmHg 48%
    11:00 +34°C° 0 mm 4 m/s 750 mmHg 43%
    12:00 +34°C° 0 mm 4 m/s 750 mmHg 42%
    13:00 +34°C° 0 mm 4 m/s 750 mmHg 41%
    14:00 +35°C° 0 mm 4 m/s 750 mmHg 39%
    15:00 +34°C° 0 mm 3 m/s 750 mmHg 43%
    16:00 +33°C° 0 mm 3 m/s 750 mmHg 46%
    17:00 +31°C° 0 mm 3 m/s 749 mmHg 50%
    18:00 +29°C° 0 mm 2 m/s 750 mmHg 56%
    19:00 +27°C° 0 mm 2 m/s 750 mmHg 61%
    20:00 +25°C° 0 mm 2 m/s 750 mmHg 67%
    21:00 +24°C° 0 mm 2 m/s 750 mmHg 68%
    22:00 +24°C° 0 mm 2 m/s 750 mmHg 69%
    23:00 +23°C° 0 mm 2 m/s 751 mmHg 69%

    23 Juin, Dimanche

    Heure Température Précipitation Vent Pression Humidité
    00:00 +23°C° 0 mm 2 m/s 750 mmHg 68%
    01:00 +23°C° 0 mm 2 m/s 750 mmHg 67%
    02:00 +23°C° 0 mm 2 m/s 750 mmHg 66%
    03:00 +23°C° 0 mm 2 m/s 750 mmHg 69%
    04:00 +23°C° 0 mm 2 m/s 750 mmHg 72%
    05:00 +23°C° 0 mm 2 m/s 750 mmHg 75%
    06:00 +25°C° 0 mm 2 m/s 750 mmHg 69%
    07:00 +27°C° 0 mm 2 m/s 751 mmHg 63%
    08:00 +29°C° 0 mm 2 m/s 751 mmHg 57%
    09:00 +30°C° 0 mm 2 m/s 751 mmHg 52%
    10:00 +32°C° 0 mm 2 m/s 751 mmHg 47%
    11:00 +34°C° 0 mm 2 m/s 751 mmHg 41%
    12:00 +34°C° 0 mm 2 m/s 751 mmHg 41%
    13:00 +34°C° 0 mm 2 m/s 751 mmHg 41%
    14:00 +34°C° 0 mm 2 m/s 751 mmHg 41%
    15:00 +34°C° 0.1 mm 2 m/s 750 mmHg 42%
    16:00 +32°C° 0.1 mm 2 m/s 750 mmHg 43%
    17:00 +32°C° 0.1 mm 1 m/s 750 mmHg 43%
    18:00 +30°C° 0.2 mm 1 m/s 750 mmHg 50%
    19:00 +27°C° 0.2 mm 1 m/s 750 mmHg 57%
    20:00 +23°C° 0.2 mm 0 m/s 750 mmHg 65%
    21:00 +23°C° 0 mm 0 m/s 751 mmHg 65%
    22:00 +22°C° 0 mm 0 m/s 751 mmHg 65%
    23:00 +22°C° 0 mm 0 m/s 751 mmHg 66%
    Voir plus